This demonstration page uses our WeatherBlox Daily Observations layout. Learn more.

Left ArrowRight Arrow

44.89941, -97.11507

Hourly Observations for October 5, 2021

Temp ( °F °C ) Dew Point ( °F °C ) Humidity (%) Winds ( mph kmh ) Pressure ( in mb ) Visibility ( mi km ) Precip ( " mm )
12:53 am 00:53 Clear 54 12.2 47 8.3 77 77 SSE 3 6 30.15 1021 10 16 0.00 0.00
1:53 am 01:53 Clear 56 13.3 46 7.8 70 70 SSE 6 9 30.14 1021 10 16 0.00 0.00
2:53 am 02:53 Clear 54 12.2 46 7.8 75 75 SSE 8 13 30.15 1021 10 16 0.00 0.00
3:53 am 03:53 Clear 53 11.7 45 7.2 74 74 SSE 6 9 30.16 1021 10 16 0.00 0.00
4:53 am 04:53 Clear 52 11.1 45 7.2 77 77 SSE 8 13 30.17 1022 10 16 0.00 0.00
5:53 am 05:53 Clear 52 11.1 45 7.2 77 77 SSE 7 11 30.17 1022 10 16 0.00 0.00
6:53 am 06:53 Clear 51 10.6 45 7.2 80 80 SSE 7 11 30.20 1023 10 16 0.00 0.00
7:53 am 07:53 Sunny 52 11.1 45 7.2 77 77 SSE 10 17 30.21 1023 10 16 0.00 0.00
8:53 am 08:53 Sunny 55 12.8 47 8.3 74 74 SSE 8 13 30.22 1023 10 16 0.00 0.00
9:53 am 09:53 Sunny 60 15.6 48 8.9 65 65 SSE 9 15 30.22 1023 10 16 0.00 0.00
10:53 am 10:53 Sunny 66 18.9 51 10.6 59 59 SSE 8 13 30.22 1023 10 16 0.00 0.00
11:53 am 11:53 Sunny 71 21.7 50 10 47 47 SSE 10 17 30.19 1023 10 16 0.00 0.00
12:53 pm 12:53 Sunny 75 23.9 51 10.6 43 43 S 12 19 30.18 1022 10 16 0.00 0.00
1:53 pm 13:53 Sunny 77 25 49 9.4 37 37 S 12 19 30.16 1021 10 16 0.00 0.00
2:53 pm 14:53 Sunny 78 25.6 49 9.4 36 36 S 9 15 30.14 1021 10 16 0.00 0.00
3:53 pm 15:53 Sunny 78 25.6 46 7.8 32 32 SSE 13 20 30.13 1020 10 16 0.00 0.00
4:53 pm 16:53 Sunny 77 25 47 8.3 35 35 S 13 20 30.13 1020 10 16 0.00 0.00
5:53 pm 17:53 Sunny 75 23.9 47 8.3 37 37 SSE 10 17 30.13 1020 10 16 0.00 0.00
6:53 pm 18:53 Sunny 69 20.6 47 8.3 45 45 SSE 8 13 30.14 1021 10 16 0.00 0.00
7:53 pm 19:53 Clear 66 18.9 47 8.3 50 50 SE 6 9 30.16 1021 10 16 0.00 0.00
8:53 pm 20:53 Clear 63 17.2 48 8.9 58 58 SE 6 9 30.16 1021 10 16 0.00 0.00
9:53 pm 21:53 Clear 62 16.7 48 8.9 60 60 SSE 9 15 30.15 1021 10 16 0.00 0.00
10:53 pm 22:53 Clear 60 15.6 50 10 70 70 SSE 12 19 30.16 1021 10 16 0.00 0.00
11:53 pm 23:53 Clear 59 15 51 10.6 75 75 SSE 10 17 30.15 1021 10 16 0.00 0.00

Powered by AerisWeather